Location: Casteau
(50.5142°N, 4.0161°E)
Time: 02:16:28
(UTC+00:00)

S-56A Canister/Altair - Pass Details

Date: 06 August 2021
Orbit: 632 x 2500 km, 38.9° (Epoch: 16 September)

Event Time Altitude Azimuth Distance (km) Brightness Sun altitude
Rises 12:21:41 0° 214° (SW) 4,854 12.1 55.4°
Reaches altitude 10° 12:24:58 10° 205° (SSW) 4,120 12.0 55.3°
Maximum altitude 12:34:50 34° 147° (SSE) 3,206 11.6 54.8°
Drops below altitude 10° 12:47:02 10° 91° (E) 5,134 11.7 54.1°
Sets 12:51:41 0° 84° (E) 6,183 12.0 53.8°
